Home   Weather   Buffalo   Past weeks

Flag for USA Past Weather in Buffalo, New York, USA — Yesterday and Last 2 Weeks

35 °F


Feels Like: 27 °F
Forecast: 37 / 47 °F
Wind: 10 mph from West

Location: Greater Buffalo International Airport

Current Time: Oct 28, 2016 at 6:36:24 AM

Latest Report: Oct 28, 2016 at 5:54 AM

Visibility: 10 mi

Pressure: 30.23 "Hg

Humidity: 85%

Dew Point: 31 °F

Location of BuffaloLocation

Past Weather in Buffalo — Graph


Buffalo Temperature Yesterday

Maximum temperature yesterday: 47 °F (at 2:54 PM)
Minimum temperature yesterday: 34 °F (at 12:54 AM)
Average temperature yesterday: 38 °F

High & Low Weather Summary for the Past Weeks

High75 °F (Oct 18, 11:54 AM)97% (Oct 17, 3:54 AM)30.50 "Hg (Oct 17, 3:54 AM)
Low34 °F (Oct 27, 12:54 AM)41% (Oct 14, 4:54 PM)29.63 "Hg (Oct 18, 1:54 PM)
Average52 °F74%30.05 "Hg
* Reported Oct 13 4:54 AM — Oct 28 4:54 AM, Buffalo, Weather by CustomWeather, © 2016

Note: Actual official high and low records may vary slightly from our data, if they occured in-between our weather recording intervals... More about our weather records


Buffalo Weather History for the Previous 24 Hours

Scroll right to see more
Time TempWeatherWind HumidityBarometerVisibility
4:54 AM
Fri, Oct 28
35 °FOvercast.10 mph82%30.21 "Hg10 mi
3:54 AM35 °FMostly cloudy.12 mph82%30.19 "Hg10 mi
2:54 AM35 °FMostly cloudy.10 mph82%30.19 "Hg10 mi
1:54 AM35 °FOvercast.8 mph85%30.17 "Hg10 mi
12:54 AM35 °FMostly cloudy.9 mph85%30.16 "Hg10 mi
11:54 PM
Thu, Oct 27
36 °FDrizzle. Overcast.10 mph85%30.14 "Hg10 mi
10:54 PM36 °FDrizzle. Low clouds.12 mph89%30.14 "Hg8 mi
9:54 PM36 °FDrizzle. Fog.15 mph89%30.11 "Hg5 mi
8:54 PM37 °FDrizzle. Fog.16 mph93%30.09 "Hg5 mi
7:54 PM39 °FLight rain. Fog.12 mph89%30.06 "Hg4 mi
6:54 PM40 °FLight rain. Fog.14 mph93%30.03 "Hg2 mi
5:59 PM42 °FLight rain. Fog.14 mph96%29.96 "Hg1 mi
4:54 PM41 °FMostly cloudy.9 mph93%29.94 "Hg10 mi
3:56 PM42 °FLight rain. Low clouds.14 mph92%29.88 "Hg8 mi
2:54 PM47 °FHeavy rain. Fog.3 mph93%29.87 "Hg1 mi
1:54 PM45 °FLight rain. Low clouds.6 mph93%29.89 "Hg8 mi
12:54 PM43 °FLight rain. Low clouds.8 mph89%29.93 "Hg9 mi
11:54 AM41 °FLight rain. Low clouds.9 mph89%29.96 "Hg10 mi
10:54 AM39 °FLight rain. Fog.9 mph89%30.00 "Hg4 mi
9:54 AM38 °FLight rain. Low clouds.10 mph90%30.04 "Hg9 mi
8:54 AM36 °FLight rain. Fog.13 mph92%30.07 "Hg6 mi
7:54 AM36 °FRain. Fog.10 mph89%30.09 "Hg4 mi
6:54 AM35 °FLight rain. Low clouds.15 mph88%30.12 "Hg10 mi
Weather by CustomWeather, © 2016

See weather overviewHow to use our weather pages